START_TIME,STEP,MOV.,M6,t_acc.,M7,t_acc.,M19,t_acc.,H36,t_acc.
1979-07-30 18:00:26.120 ,0,1,0.,12.0,0.,12.0,0.,12.0,0.,12.0
1979-07-30 18:00:38.120 ,0,1,0.,12.0,0.,12.0,0.,12.0,0.,12.0
1979-07-30 18:00:50.120 ,3,1,0.,12.0,0.,12.0,0.,12.0,0.,12.0
1979-07-30 18:01:02.120 ,3,1,0.,12.0,0.,12.0,0.,12.0,0.,12.0
1979-07-30 18:01:14.120 ,7,1,0.,12.0,0.,12.0,0.,12.0,0.,12.0
1979-07-30 18:01:26.120 ,7,1,0.,12.0,0.,12.0,0.,12.0,0.,12.0
1979-07-30 18:01:38.120 ,4,1,0.,12.0,0.,12.0,0.,12.0,0.,12.0
1979-07-30 18:01:50.120 ,4,1,0.,12.0,0.,12.0,0.,12.0,0.,12.0
1979-07-30 18:02:02.120 ,0,1,0.,12.0,0.,12.0,0.,12.0,0.,12.0
1979-07-30 18:02:14.120 ,0,1,0.,12.0,0.,12.0,0.,12.0,0.,12.0
1979-07-30 18:02:26.120 ,3,1,0.,12.0,0.,12.0,0.,12.0,0.,12.0
1979-07-30 18:02:38.120 ,3,1,0.,12.0,0.,12.0,0.,12.0,0.,12.0
1979-07-30 18:02:50.120 ,7,1,0.,12.0,0.,12.0,0.,12.0,0.,12.0
1979-07-30 18:03:02.120 ,7,1,0.,12.0,0.,12.0,0.,12.0,0.,12.0
1979-07-30 18:03:14.120 ,4,1,0.,12.0,0.,12.0,0.,12.0,0.,12.0
1979-07-30 18:03:26.120 ,4,1,0.,12.0,0.,12.0,0.,12.0,0.,12.0
1979-07-30 18:03:38.120 ,0,1,0.,12.0,0.,12.0,0.,12.0,0.,12.0
1979-07-30 18:03:50.120 ,0,1,0.,12.0,0.,12.0,0.,12.0,0.,12.0
1979-07-30 18:04:02.120 ,3,1,0.,12.0,0.,12.0,0.,12.0,0.,12.0
1979-07-30 18:04:14.120 ,3,1,0.,12.0,0.,12.0,0.,12.0,0.,12.0
1979-07-30 18:04:26.120 ,7,1,0.,12.0,0.,12.0,0.,12.0,0.,12.0
1979-07-30 18:04:38.120 ,7,1,0.,12.0,0.,12.0,0.,12.0,0.,12.0
1979-07-30 18:04:50.120 ,4,1,0.,12.0,0.,12.0,0.,12.0,0.,12.0
1979-07-30 18:05:02.120 ,4,1,0.,12.0,0.,12.0,0.,12.0,0.,12.0
1979-07-30 18:05:14.120 ,0,1,0.,12.0,0.,12.0,0.,12.0,0.,12.0
1979-07-30 18:05:26.120 ,0,1,0.,12.0,0.,12.0,0.,12.0,0.,12.0
1979-07-30 18:05:38.120 ,0,0,0.,12.0,0.,12.0,0.,12.0,0.,12.0
1979-07-30 18:05:50.120 ,0,0,0.,12.0,0.,12.0,0.,12.0,0.,12.0
1979-07-30 18:06:02.120 ,0,0,0.,12.0,0.,12.0,0.,12.0,0.,12.0
1979-07-30 18:06:14.120 ,0,0,0.,12.0,0.,12.0,0.,12.0,0.,12.0
1979-07-30 18:06:26.120 ,5,1,0.,12.0,0.,12.0,0.,12.0,0.,12.0
1979-07-30 18:06:38.120 ,5,1,0.,12.0,0.,12.0,0.,12.0,0.,12.0
1979-07-30 18:06:50.120 ,5,0,0.,12.0,0.,12.0,0.,12.0,0.,12.0
1979-07-30 18:07:02.120 ,5,0,0.,12.0,0.,12.0,0.,12.0,0.,12.0
1979-07-30 18:07:14.120 ,4,1,0.,12.0,0.,12.0,0.,12.0,0.,12.0
1979-07-30 18:07:26.120 ,4,1,0.,12.0,0.,12.0,0.,12.0,0.,12.0
1979-07-30 18:07:38.120 ,4,0,0.,12.0,0.,12.0,0.,12.0,0.,12.0
1979-07-30 18:07:50.120 ,4,0,0.,12.0,0.,12.0,0.,12.0,0.,12.0
1979-07-30 18:08:02.120 ,3,1,0.,12.0,0.,12.0,0.,12.0,0.,12.0
1979-07-30 18:08:14.120 ,3,1,0.,12.0,0.,12.0,0.,12.0,0.,12.0
1979-07-30 18:08:26.120 ,3,0,0.,12.0,0.,12.0,0.,12.0,0.,12.0
1979-07-30 18:08:38.120 ,3,0,0.,12.0,0.,12.0,0.,12.0,0.,12.0
1979-07-30 18:08:50.120 ,2,1,0.,12.0,0.,12.0,0.,12.0,0.,12.0
1979-07-30 18:09:02.120 ,2,1,0.,12.0,0.,12.0,0.,12.0,0.,12.0
1979-07-30 18:09:14.120 ,2,0,0.,12.0,0.,12.0,0.,12.0,0.,12.0
1979-07-30 18:09:26.120 ,2,0,0.,12.0,0.,12.0,0.,12.0,0.,12.0
1979-07-30 18:09:38.120 ,1,1,0.,12.0,0.,12.0,0.,12.0,0.,12.0
1979-07-30 18:09:50.120 ,1,1,0.,12.0,0.,12.0,0.,12.0,0.,12.0
1979-07-30 18:10:02.120 ,1,0,0.,12.0,0.,12.0,0.,12.0,0.,12.0
1979-07-30 18:10:14.120 ,1,0,0.,12.0,0.,12.0,0.,12.0,0.,12.0
1979-07-30 18:10:26.120 ,0,1,0.,12.0,0.,12.0,0.,12.0,0.,12.0
1979-07-30 18:10:38.120 ,0,1,0.,12.0,0.,12.0,0.,12.0,0.,12.0
1979-07-30 18:10:50.120 ,0,0,0.,12.0,0.,12.0,0.,12.0,0.,12.0
1979-07-30 18:11:02.120 ,0,0,0.,12.0,0.,12.0,0.,12.0,0.,12.0
1979-07-30 18:11:14.120 ,0,1,0.,12.0,0.,12.0,0.,12.0,0.,12.0
1979-07-30 18:11:26.120 ,0,1,0.,12.0,0.,12.0,0.,12.0,0.,12.0
1979-07-30 18:11:38.120 ,0,0,0.,12.0,0.,12.0,0.,12.0,0.,12.0
1979-07-30 18:11:50.120 ,0,0,0.,12.0,0.,12.0,0.,12.0,0.,12.0
1979-07-30 18:12:02.120 ,1,1,0.,12.0,0.,12.0,0.,12.0,0.,12.0
1979-07-30 18:12:14.120 ,1,1,0.,12.0,0.,12.0,0.,12.0,0.,12.0
1979-07-30 18:12:26.120 ,1,0,0.,12.0,0.,12.0,0.,12.0,0.,12.0
1979-07-30 18:12:38.120 ,1,0,0.,12.0,0.,12.0,0.,12.0,0.,12.0
1979-07-30 18:12:50.120 ,2,1,0.,12.0,0.,12.0,0.,12.0,0.,12.0
1979-07-30 18:13:02.120 ,2,1,0.,12.0,0.,12.0,0.,12.0,0.,12.0
1979-07-30 18:13:14.120 ,2,0,0.,12.0,0.,12.0,0.,12.0,0.,12.0
1979-07-30 18:13:26.120 ,2,0,0.,12.0,0.,12.0,0.,12.0,0.,12.0
1979-07-30 18:13:38.120 ,3,1,0.,12.0,0.,12.0,0.,12.0,0.,12.0
1979-07-30 18:13:50.120 ,3,1,0.,12.0,0.,12.0,0.,12.0,0.,12.0
1979-07-30 18:14:02.120 ,3,0,0.,12.0,0.,12.0,0.,12.0,0.,12.0
1979-07-30 18:14:14.120 ,3,0,0.,12.0,0.,12.0,0.,12.0,0.,12.0
1979-07-30 18:14:26.120 ,4,1,0.,12.0,0.,12.0,0.,12.0,0.,12.0
1979-07-30 18:14:38.120 ,4,1,0.,12.0,0.,12.0,0.,12.0,0.,12.0
1979-07-30 18:14:50.120 ,4,0,0.,12.0,0.,12.0,0.,12.0,0.,12.0
1979-07-30 18:15:02.120 ,4,0,0.,12.0,0.,12.0,0.,12.0,0.,12.0
1979-07-30 18:15:14.120 ,5,1,0.,12.0,0.,12.0,0.,12.0,0.,12.0
1979-07-30 18:15:26.120 ,5,1,0.,12.0,0.,12.0,0.,12.0,0.,12.0
1979-07-30 18:15:38.120 ,5,0,0.,12.0,0.,12.0,0.,12.0,0.,12.0
1979-07-30 18:15:50.120 ,5,0,0.,12.0,0.,12.0,0.,12.0,0.,12.0
1979-07-30 18:16:02.120 ,6,1,0.,12.0,0.,12.0,0.,12.0,0.,12.0
1979-07-30 18:16:14.120 ,6,1,0.,12.0,0.,12.0,0.,12.0,0.,12.0
1979-07-30 18:16:26.120 ,6,0,0.,12.0,0.,12.0,0.,12.0,0.,12.0
1979-07-30 18:16:38.120 ,6,0,0.,12.0,0.,12.0,0.,12.0,0.,12.0
1979-07-30 18:16:50.120 ,7,1,0.,12.0,0.,12.0,0.,12.0,0.,12.0
1979-07-30 18:17:02.120 ,7,1,0.,12.0,0.,12.0,0.,12.0,0.,12.0
1979-07-30 18:17:14.120 ,7,0,0.,12.0,0.,12.0,0.,12.0,0.,12.0
1979-07-30 18:17:26.120 ,7,0,0.,12.0,0.,12.0,0.,12.0,0.,12.0
1979-07-30 18:17:38.120 ,7,1,0.,12.0,0.,12.0,0.,12.0,0.,12.0
1979-07-30 18:17:50.120 ,7,1,0.,12.0,0.,12.0,0.,12.0,0.,12.0
1979-07-30 18:18:02.120 ,7,0,0.,12.0,0.,12.0,0.,12.0,0.,12.0
1979-07-30 18:18:14.120 ,7,0,0.,12.0,0.,12.0,0.,12.0,0.,12.0
1979-07-30 18:18:26.120 ,6,1,0.,12.0,0.,12.0,0.,12.0,0.,12.0
1979-07-30 18:18:38.120 ,6,1,0.,12.0,0.,12.0,0.,12.0,0.,12.0
1979-07-30 18:18:50.120 ,6,0,0.,12.0,0.,12.0,0.,12.0,0.,12.0
1979-07-30 18:19:02.120 ,6,0,0.,12.0,0.,12.0,0.,12.0,0.,12.0
1979-07-30 18:19:14.120 ,5,1,0.,12.0,0.,12.0,0.,12.0,0.,12.0
1979-07-30 18:19:26.120 ,5,1,0.,12.0,0.,12.0,0.,12.0,0.,12.0
1979-07-30 18:19:38.120 ,5,0,0.,12.0,0.,12.0,0.,12.0,0.,12.0
1979-07-30 18:19:50.120 ,5,0,0.,12.0,0.,12.0,0.,12.0,0.,12.0
1979-07-30 18:20:02.120 ,4,1,0.,12.0,0.,12.0,0.,12.0,0.,12.0
1979-07-30 18:20:14.120 ,4,1,0.,12.0,0.,12.0,0.,12.0,0.,12.0
1979-07-30 18:20:26.120 ,4,0,0.,12.0,0.,12.0,0.,12.0,0.,12.0
1979-07-30 18:20:38.120 ,4,0,0.,12.0,0.,12.0,0.,12.0,0.,12.0
1979-07-30 18:20:50.120 ,3,1,0.,12.0,0.,12.0,0.,12.0,0.,12.0
1979-07-30 18:21:02.120 ,3,1,0.,12.0,0.,12.0,0.,12.0,0.,12.0
1979-07-30 18:21:14.120 ,3,0,0.,12.0,0.,12.0,0.,12.0,0.,12.0
1979-07-30 18:21:26.120 ,3,0,0.,12.0,0.,12.0,0.,12.0,0.,12.0
1979-07-30 18:21:38.120 ,2,1,0.,12.0,0.,12.0,0.,12.0,0.,12.0
1979-07-30 18:21:50.120 ,2,1,0.,12.0,0.,12.0,0.,12.0,0.,12.0
1979-07-30 18:22:02.120 ,2,0,0.,12.0,0.,12.0,0.,12.0,0.,12.0
1979-07-30 18:22:14.120 ,2,0,0.,12.0,0.,12.0,0.,12.0,0.,12.0
1979-07-30 18:22:26.120 ,1,1,0.,12.0,0.,12.0,0.,12.0,0.,12.0
1979-07-30 18:22:38.120 ,1,1,0.,12.0,0.,12.0,0.,12.0,0.,12.0
1979-07-30 18:22:50.120 ,1,0,0.,12.0,0.,12.0,0.,12.0,0.,12.0
1979-07-30 18:23:02.120 ,1,0,0.,12.0,0.,12.0,0.,12.0,0.,12.0
1979-07-30 18:23:14.120 ,0,1,0.,12.0,0.,12.0,0.,12.0,0.,12.0
1979-07-30 18:23:26.120 ,0,1,0.,12.0,0.,12.0,0.,12.0,0.,12.0
1979-07-30 18:23:38.120 ,0,0,0.,12.0,0.,12.0,0.,12.0,0.,12.0
1979-07-30 18:23:50.120 ,0,0,0.,12.0,0.,12.0,0.,12.0,0.,12.0
1979-07-30 18:24:02.120 ,0,1,0.,12.0,0.,12.0,0.,12.0,0.,12.0
1979-07-30 18:24:14.120 ,0,1,0.,12.0,0.,12.0,0.,12.0,0.,12.0
1979-07-30 18:24:26.120 ,0,0,0.,12.0,0.,12.0,0.,12.0,0.,12.0
1979-07-30 18:24:38.120 ,0,0,0.,12.0,0.,12.0,0.,12.0,0.,12.0
1979-07-30 18:24:50.120 ,1,1,0.,12.0,0.,12.0,0.,12.0,0.,12.0
1979-07-30 18:25:02.120 ,1,1,0.,12.0,0.,12.0,0.,12.0,0.,12.0
1979-07-30 18:25:14.120 ,1,0,0.,12.0,0.,12.0,0.,12.0,0.,12.0
1979-07-30 18:25:26.120 ,1,0,0.,12.0,0.,12.0,0.,12.0,0.,12.0
1979-07-30 18:25:38.120 ,2,1,0.,12.0,0.,12.0,0.,12.0,0.,12.0
1979-07-30 18:25:50.120 ,2,1,0.,12.0,0.,12.0,0.,12.0,0.,12.0
1979-07-30 18:26:02.120 ,2,0,0.,12.0,0.,12.0,0.,12.0,0.,12.0
1979-07-30 18:26:14.120 ,2,0,0.,12.0,0.,12.0,0.,12.0,0.,12.0
1979-07-30 18:26:26.120 ,3,1,0.,12.0,0.,12.0,0.,12.0,0.,12.0
1979-07-30 18:26:38.120 ,3,1,0.,12.0,0.,12.0,0.,12.0,0.,12.0
1979-07-30 18:26:50.120 ,3,0,0.,12.0,0.,12.0,0.,12.0,0.,12.0
1979-07-30 18:27:02.120 ,3,0,0.,12.0,0.,12.0,0.,12.0,0.,12.0
1979-07-30 18:27:14.120 ,4,1,0.,12.0,0.,12.0,0.,12.0,0.,12.0
1979-07-30 18:27:26.120 ,4,1,0.,12.0,0.,12.0,0.,12.0,0.,12.0
1979-07-30 18:27:38.120 ,4,0,0.,12.0,0.,12.0,0.,12.0,0.,12.0
1979-07-30 18:27:50.120 ,4,0,0.,12.0,0.,12.0,0.,12.0,0.,12.0
1979-07-30 18:28:02.120 ,5,1,0.,12.0,0.,12.0,0.,12.0,0.,12.0
1979-07-30 18:28:14.120 ,5,1,0.,12.0,0.,12.0,0.,12.0,0.,12.0
1979-07-30 18:28:26.120 ,5,0,0.,12.0,0.,12.0,0.,12.0,0.,12.0
1979-07-30 18:28:38.120 ,5,0,0.,12.0,0.,12.0,0.,12.0,0.,12.0
1979-07-30 18:28:50.120 ,6,1,0.,12.0,0.,12.0,0.,12.0,0.,12.0
1979-07-30 18:29:02.120 ,6,1,0.,12.0,0.,12.0,0.,12.0,0.,12.0
1979-07-30 18:29:14.120 ,6,0,0.,12.0,0.,12.0,0.,12.0,0.,12.0
1979-07-30 18:29:26.120 ,6,0,0.,12.0,0.,12.0,0.,12.0,0.,12.0
1979-07-30 18:29:38.120 ,7,1,0.,12.0,0.,12.0,0.,12.0,0.,12.0
1979-07-30 18:29:50.120 ,7,1,0.,12.0,0.,12.0,0.,12.0,0.,12.0
1979-07-30 18:30:02.120 ,7,0,0.,12.0,0.,12.0,0.,12.0,0.,12.0
1979-07-30 18:30:14.120 ,7,0,0.,12.0,0.,12.0,0.,12.0,0.,12.0
1979-07-30 18:30:26.120 ,7,1,0.,12.0,0.,12.0,0.,12.0,0.,12.0
1979-07-30 18:30:38.120 ,7,1,0.,12.0,0.,12.0,0.,12.0,0.,12.0
1979-07-30 18:30:50.120 ,7,0,0.,12.0,0.,12.0,0.,12.0,0.,12.0
1979-07-30 18:31:02.120 ,7,0,0.,12.0,0.,12.0,0.,12.0,0.,12.0
1979-07-30 18:31:14.120 ,6,1,0.,12.0,0.,12.0,0.,12.0,0.,12.0
1979-07-30 18:31:26.120 ,6,1,0.,12.0,0.,12.0,0.,12.0,0.,12.0
1979-07-30 18:31:38.120 ,6,0,0.,12.0,0.,12.0,0.,12.0,0.,12.0
1979-07-30 18:31:50.120 ,6,0,0.,12.0,0.,12.0,0.,12.0,0.,12.0
1979-07-30 18:32:02.120 ,5,1,0.,12.0,0.,12.0,0.,12.0,0.,12.0
1979-07-30 18:32:14.120 ,5,1,0.,12.0,0.,12.0,0.,12.0,0.,12.0
1979-07-30 18:32:26.120 ,5,0,0.,12.0,0.,12.0,0.,12.0,0.,12.0
1979-07-30 18:32:38.120 ,5,0,0.,12.0,0.,12.0,0.,12.0,0.,12.0
1979-07-30 18:32:50.120 ,4,1,0.,12.0,0.,12.0,0.,12.0,0.,12.0
1979-07-30 18:33:02.120 ,4,1,0.,12.0,0.,12.0,0.,12.0,0.,12.0
1979-07-30 18:33:14.120 ,4,0,0.,12.0,0.,12.0,0.,12.0,0.,12.0
1979-07-30 18:33:26.120 ,4,0,0.,12.0,0.,12.0,0.,12.0,0.,12.0
1979-07-30 18:33:38.120 ,3,1,0.,12.0,0.,12.0,0.,12.0,0.,12.0
1979-07-30 18:33:50.120 ,3,1,0.,12.0,0.,12.0,0.,12.0,0.,12.0
1979-07-30 18:34:02.120 ,3,0,0.,12.0,0.,12.0,0.,12.0,0.,12.0
1979-07-30 18:34:14.120 ,3,0,0.,12.0,0.,12.0,0.,12.0,0.,12.0
1979-07-30 18:34:26.120 ,2,1,0.,12.0,0.,12.0,0.,12.0,0.,12.0
1979-07-30 18:34:38.120 ,2,1,0.,12.0,0.,12.0,0.,12.0,0.,12.0
1979-07-30 18:34:50.120 ,2,0,0.,12.0,0.,12.0,0.,12.0,0.,12.0
1979-07-30 18:35:02.120 ,2,0,0.,12.0,0.,12.0,0.,12.0,0.,12.0
1979-07-30 18:35:14.120 ,1,1,0.,12.0,0.,12.0,0.,12.0,0.,12.0
1979-07-30 18:35:26.120 ,1,1,0.,12.0,0.,12.0,0.,12.0,0.,12.0
1979-07-30 18:35:38.120 ,1,0,0.,12.0,0.,12.0,0.,12.0,0.,12.0
1979-07-30 18:35:50.120 ,1,0,0.,12.0,0.,12.0,0.,12.0,0.,12.0
1979-07-30 18:36:02.120 ,0,1,0.,12.0,0.,12.0,0.,12.0,0.,12.0
1979-07-30 18:36:14.120 ,0,1,0.,12.0,0.,12.0,0.,12.0,0.,12.0
1979-07-30 18:36:26.120 ,0,0,0.,12.0,0.,12.0,0.,12.0,0.,12.0
1979-07-30 18:36:38.120 ,0,0,0.,12.0,0.,12.0,0.,12.0,0.,12.0
1979-07-30 18:36:50.120 ,0,1,0.,12.0,0.,12.0,0.,12.0,0.,12.0
1979-07-30 18:37:02.120 ,0,1,0.,12.0,0.,12.0,0.,12.0,0.,12.0
1979-07-30 18:37:14.120 ,0,0,0.,12.0,0.,12.0,0.,12.0,0.,12.0
1979-07-30 18:37:26.120 ,0,0,0.,12.0,0.,12.0,0.,12.0,0.,12.0
1979-07-30 18:37:38.120 ,1,1,0.,12.0,0.,12.0,0.,12.0,0.,12.0
1979-07-30 18:37:50.120 ,1,1,0.,12.0,0.,12.0,0.,12.0,0.,12.0
1979-07-30 18:38:02.120 ,1,0,0.,12.0,0.,12.0,0.,12.0,0.,12.0
1979-07-30 18:38:14.120 ,1,0,0.,12.0,0.,12.0,0.,12.0,0.,12.0
1979-07-30 18:38:26.120 ,2,1,0.,12.0,0.,12.0,0.,12.0,0.,12.0
1979-07-30 18:38:38.120 ,2,1,0.,12.0,0.,12.0,0.,12.0,0.,12.0
1979-07-30 18:38:50.120 ,2,0,0.,12.0,0.,12.0,0.,12.0,0.,12.0
1979-07-30 18:39:02.120 ,2,0,0.,12.0,0.,12.0,0.,12.0,0.,12.0
1979-07-30 18:39:14.120 ,3,1,0.,12.0,0.,12.0,0.,12.0,0.,12.0
1979-07-30 18:39:26.120 ,3,1,0.,12.0,0.,12.0,0.,12.0,0.,12.0
1979-07-30 18:39:38.120 ,3,0,0.,12.0,0.,12.0,0.,12.0,0.,12.0
1979-07-30 18:39:50.120 ,3,0,0.,12.0,0.,12.0,0.,12.0,0.,12.0
1979-07-30 18:40:02.120 ,4,1,0.,12.0,0.,12.0,0.,12.0,0.,12.0
1979-07-30 18:40:14.120 ,4,1,0.,12.0,0.,12.0,0.,12.0,0.,12.0
1979-07-30 18:40:26.120 ,4,0,0.,12.0,0.,12.0,0.,12.0,0.,12.0
1979-07-30 18:40:38.120 ,4,0,0.,12.0,0.,12.0,0.,12.0,0.,12.0
1979-07-30 18:40:50.120 ,5,1,0.,12.0,0.,12.0,0.,12.0,0.,12.0
1979-07-30 18:41:02.120 ,5,1,0.,12.0,0.,12.0,0.,12.0,0.,12.0
1979-07-30 18:41:14.120 ,5,0,0.,12.0,0.,12.0,0.,12.0,0.,12.0
1979-07-30 18:41:26.120 ,5,0,0.,12.0,0.,12.0,0.,12.0,0.,12.0
1979-07-30 18:41:38.120 ,6,1,0.,12.0,0.,12.0,0.,12.0,0.,12.0
1979-07-30 18:41:50.120 ,6,1,0.,12.0,0.,12.0,0.,12.0,0.,12.0
1979-07-30 18:42:02.120 ,6,0,0.,12.0,0.,12.0,0.,12.0,0.,12.0
1979-07-30 18:42:14.120 ,6,0,0.,12.0,0.,12.0,0.,12.0,0.,12.0
1979-07-30 18:42:26.120 ,7,0,0.,12.0,0.,12.0,0.,12.0,0.,12.0
1979-07-30 18:42:38.120 ,7,0,0.,12.0,0.,12.0,0.,12.0,0.,12.0
1979-07-30 18:42:50.120 ,7,0,0.,12.0,0.,12.0,0.,12.0,0.,12.0
1979-07-30 18:43:02.120 ,7,0,0.,12.0,0.,12.0,0.,12.0,0.,12.0
1979-07-30 18:43:14.120 ,4,1,0.,12.0,0.,12.0,0.,12.0,0.,12.0
1979-07-30 18:43:26.120 ,4,1,0.,12.0,0.,12.0,0.,12.0,0.,12.0
1979-07-30 18:43:38.120 ,0,1,0.,12.0,0.,12.0,0.,12.0,0.,12.0
1979-07-30 18:43:50.120 ,0,1,0.,12.0,0.,12.0,0.,12.0,0.,12.0
1979-07-30 18:44:02.120 ,3,1,0.,12.0,0.,12.0,0.,12.0,0.,12.0
1979-07-30 18:44:14.120 ,3,1,0.,12.0,0.,12.0,0.,12.0,0.,12.0
1979-07-30 18:44:26.120 ,7,1,0.,12.0,0.,12.0,0.,12.0,0.,12.0
1979-07-30 18:44:38.120 ,7,1,0.,12.0,0.,12.0,0.,12.0,0.,12.0
1979-07-30 18:44:50.120 ,4,1,0.,12.0,0.,12.0,0.,12.0,0.,12.0
1979-07-30 18:45:02.120 ,4,1,0.,12.0,0.,12.0,0.,12.0,0.,12.0
1979-07-30 18:45:14.120 ,0,1,0.,12.0,0.,12.0,0.,12.0,0.,12.0
1979-07-30 18:45:26.120 ,0,1,0.,12.0,0.,12.0,0.,12.0,0.,12.0
1979-07-30 18:45:38.120 ,3,1,0.,12.0,0.,12.0,0.,12.0,0.,12.0
1979-07-30 18:45:50.120 ,3,1,0.,12.0,0.,12.0,0.,12.0,0.,12.0
1979-07-30 18:46:02.120 ,7,1,0.,12.0,0.,12.0,0.,12.0,0.,12.0
1979-07-30 18:46:14.120 ,7,1,0.,12.0,0.,12.0,0.,12.0,0.,12.0
1979-07-30 18:46:26.120 ,4,1,0.,12.0,0.,12.0,0.,12.0,0.,12.0
1979-07-30 18:46:38.120 ,4,1,0.,12.0,0.,12.0,0.,12.0,0.,12.0
1979-07-30 18:46:50.120 ,0,1,0.,12.0,0.,12.0,0.,12.0,0.,12.0
1979-07-30 18:47:02.120 ,0,1,0.,12.0,0.,12.0,0.,12.0,0.,12.0
1979-07-30 18:47:14.120 ,3,1,0.,12.0,0.,12.0,0.,12.0,0.,12.0
1979-07-30 18:47:26.120 ,3,1,0.,12.0,0.,12.0,0.,12.0,0.,12.0
1979-07-30 18:47:38.120 ,7,1,0.,12.0,0.,12.0,0.,12.0,0.,12.0
1979-07-30 18:47:50.120 ,7,1,0.,12.0,0.,12.0,0.,12.0,0.,12.0
1979-07-30 18:48:02.120 ,4,1,0.,12.0,0.,12.0,0.,12.0,0.,12.0
1979-07-30 18:48:14.120 ,4,1,0.,12.0,0.,12.0,0.,12.0,0.,12.0
1979-07-30 18:48:26.120 ,0,1,0.,12.0,0.,12.0,0.,12.0,0.,12.0
1979-07-30 18:48:38.120 ,0,1,0.,12.0,0.,12.0,0.,12.0,0.,12.0
1979-07-30 18:48:50.120 ,3,1,0.,12.0,0.,12.0,0.,12.0,0.,12.0
1979-07-30 18:49:02.120 ,3,1,0.,12.0,0.,12.0,0.,12.0,0.,12.0
1979-07-30 18:49:14.120 ,7,1,0.,12.0,0.,12.0,0.,12.0,0.,12.0
1979-07-30 18:49:26.120 ,7,1,0.,12.0,0.,12.0,0.,12.0,0.,12.0
1979-07-30 18:49:38.120 ,4,1,0.,12.0,0.,12.0,0.,12.0,0.,12.0
1979-07-30 18:49:50.120 ,4,1,0.,12.0,0.,12.0,0.,12.0,0.,12.0
1979-07-30 18:50:02.120 ,0,1,0.,12.0,0.,12.0,0.,12.0,0.,12.0
1979-07-30 18:50:14.120 ,0,1,0.,12.0,0.,12.0,0.,12.0,0.,12.0
1979-07-30 18:50:26.120 ,3,1,0.,12.0,0.,12.0,0.,12.0,0.,12.0
1979-07-30 18:50:38.120 ,3,1,0.,12.0,0.,12.0,0.,12.0,0.,12.0
1979-07-30 18:50:50.120 ,7,1,0.,12.0,0.,12.0,0.,12.0,0.,12.0
1979-07-30 18:51:02.120 ,7,1,0.,12.0,0.,12.0,0.,12.0,0.,12.0
1979-07-30 18:51:14.120 ,4,1,0.,12.0,0.,12.0,0.,12.0,0.,12.0
1979-07-30 18:51:26.120 ,4,1,0.,12.0,0.,12.0,0.,12.0,0.,12.0
1979-07-30 18:51:38.120 ,0,1,0.,12.0,0.,12.0,0.,12.0,0.,12.0
1979-07-30 18:51:50.120 ,0,1,0.,12.0,0.,12.0,0.,12.0,0.,12.0
1979-07-30 18:52:02.120 ,3,1,0.,12.0,0.,12.0,0.,12.0,0.,12.0
1979-07-30 18:52:14.120 ,3,1,0.,12.0,0.,12.0,0.,12.0,0.,12.0
1979-07-30 18:52:26.120 ,7,1,0.,12.0,0.,12.0,0.,12.0,0.,12.0
1979-07-30 18:52:38.120 ,7,1,0.,12.0,0.,12.0,0.,12.0,0.,12.0
1979-07-30 18:52:50.120 ,4,1,0.,12.0,0.,12.0,0.,12.0,0.,12.0
1979-07-30 18:53:02.120 ,4,1,0.,12.0,0.,12.0,0.,12.0,0.,12.0
1979-07-30 18:53:14.120 ,0,1,0.,12.0,0.,12.0,0.,12.0,0.,12.0
1979-07-30 18:53:26.120 ,0,1,0.,12.0,0.,12.0,0.,12.0,0.,12.0
1979-07-30 18:53:38.120 ,0,0,0.,12.0,0.,12.0,0.,12.0,0.,12.0
1979-07-30 18:53:50.120 ,0,0,0.,12.0,0.,12.0,0.,12.0,0.,12.0
1979-07-30 18:54:02.120 ,0,0,0.,12.0,0.,12.0,0.,12.0,0.,12.0
1979-07-30 18:54:14.120 ,0,0,0.,12.0,0.,12.0,0.,12.0,0.,12.0
1979-07-30 18:54:26.120 ,5,1,0.,12.0,0.,12.0,0.,12.0,0.,12.0
1979-07-30 18:54:38.120 ,5,1,0.,12.0,0.,12.0,0.,12.0,0.,12.0
1979-07-30 18:54:50.120 ,5,0,0.,12.0,0.,12.0,0.,12.0,0.,12.0
1979-07-30 18:55:02.120 ,5,0,0.,12.0,0.,12.0,0.,12.0,0.,12.0
1979-07-30 18:55:14.120 ,4,1,0.,12.0,0.,12.0,0.,12.0,0.,12.0
1979-07-30 18:55:26.120 ,4,1,0.,12.0,0.,12.0,0.,12.0,0.,12.0
1979-07-30 18:55:38.120 ,4,0,0.,12.0,0.,12.0,0.,12.0,0.,12.0
1979-07-30 18:55:50.120 ,4,0,0.,12.0,0.,12.0,0.,12.0,0.,12.0
1979-07-30 18:56:02.120 ,3,1,0.,12.0,0.,12.0,0.,12.0,0.,12.0
1979-07-30 18:56:14.120 ,3,1,0.,12.0,0.,12.0,0.,12.0,0.,12.0
1979-07-30 18:56:26.120 ,3,0,0.,12.0,0.,12.0,0.,12.0,0.,12.0
1979-07-30 18:56:38.120 ,3,0,0.,12.0,0.,12.0,0.,12.0,0.,12.0
1979-07-30 18:56:50.120 ,2,1,0.,12.0,0.,12.0,0.,12.0,0.,12.0
1979-07-30 18:57:02.120 ,2,1,0.,12.0,0.,12.0,0.,12.0,0.,12.0
1979-07-30 18:57:14.120 ,2,0,0.,12.0,0.,12.0,0.,12.0,0.,12.0
1979-07-30 18:57:26.120 ,2,0,0.,12.0,0.,12.0,0.,12.0,0.,12.0
1979-07-30 18:57:38.120 ,1,1,0.,12.0,0.,12.0,0.,12.0,0.,12.0
1979-07-30 18:57:50.120 ,1,1,0.,12.0,0.,12.0,0.,12.0,0.,12.0
1979-07-30 18:58:02.120 ,1,0,0.,12.0,0.,12.0,0.,12.0,0.,12.0
1979-07-30 18:58:14.120 ,1,0,0.,12.0,0.,12.0,0.,12.0,0.,12.0
1979-07-30 18:58:26.120 ,0,1,0.,12.0,0.,12.0,0.,12.0,0.,12.0
1979-07-30 18:58:38.120 ,0,1,0.,12.0,0.,12.0,0.,12.0,0.,12.0
1979-07-30 18:58:50.120 ,0,0,0.,12.0,0.,12.0,0.,12.0,0.,12.0
1979-07-30 18:59:02.120 ,0,0,0.,12.0,0.,12.0,0.,12.0,0.,12.0
1979-07-30 18:59:14.120 ,0,1,0.,12.0,0.,12.0,0.,12.0,0.,12.0
1979-07-30 18:59:26.120 ,0,1,0.,12.0,0.,12.0,0.,12.0,0.,12.0
1979-07-30 18:59:38.120 ,0,0,0.,12.0,0.,12.0,0.,12.0,0.,12.0
1979-07-30 18:59:50.120 ,0,0,0.,12.0,0.,12.0,0.,12.0,0.,12.0
1979-07-30 19:00:02.120 ,1,1,0.,12.0,0.,12.0,0.,12.0,0.,12.0
1979-07-30 19:00:14.120 ,1,1,0.,12.0,0.,12.0,0.,12.0,0.,12.0
1979-07-30 19:00:26.120 ,1,0,0.,12.0,0.,12.0,0.,12.0,0.,12.0
1979-07-30 19:00:38.120 ,1,0,0.,12.0,0.,12.0,0.,12.0,0.,12.0
1979-07-30 19:00:50.120 ,2,1,0.,12.0,0.,12.0,0.,12.0,0.,12.0
1979-07-30 19:01:02.120 ,2,1,0.,12.0,0.,12.0,0.,12.0,0.,12.0
1979-07-30 19:01:14.120 ,2,0,0.,12.0,0.,12.0,0.,12.0,0.,12.0
1979-07-30 19:01:26.120 ,2,0,0.,12.0,0.,12.0,0.,12.0,0.,12.0
1979-07-30 19:01:38.120 ,3,1,0.,12.0,0.,12.0,0.,12.0,0.,12.0
1979-07-30 19:01:50.120 ,3,1,0.,12.0,0.,12.0,0.,12.0,0.,12.0
1979-07-30 19:02:02.120 ,3,0,0.,12.0,0.,12.0,0.,12.0,0.,12.0
1979-07-30 19:02:14.120 ,3,0,0.,12.0,0.,12.0,0.,12.0,0.,12.0
1979-07-30 19:02:26.120 ,4,1,0.,12.0,0.,12.0,0.,12.0,0.,12.0
1979-07-30 19:02:38.120 ,4,1,0.,12.0,0.,12.0,0.,12.0,0.,12.0
1979-07-30 19:02:50.120 ,4,0,0.,12.0,0.,12.0,0.,12.0,0.,12.0
1979-07-30 19:03:02.120 ,4,0,0.,12.0,0.,12.0,0.,12.0,0.,12.0
1979-07-30 19:03:14.120 ,5,1,0.,12.0,0.,12.0,0.,12.0,0.,12.0
1979-07-30 19:03:26.120 ,5,1,0.,12.0,0.,12.0,0.,12.0,0.,12.0
1979-07-30 19:03:38.120 ,5,0,0.,12.0,0.,12.0,0.,12.0,0.,12.0
1979-07-30 19:03:50.120 ,5,0,0.,12.0,0.,12.0,0.,12.0,0.,12.0
1979-07-30 19:04:02.120 ,6,1,0.,12.0,0.,12.0,0.,12.0,0.,12.0
1979-07-30 19:04:14.120 ,6,1,0.,12.0,0.,12.0,0.,12.0,0.,12.0
1979-07-30 19:04:26.120 ,6,0,0.,12.0,0.,12.0,0.,12.0,0.,12.0
1979-07-30 19:04:38.120 ,6,0,0.,12.0,0.,12.0,0.,12.0,0.,12.0
1979-07-30 19:04:50.120 ,7,1,0.,12.0,0.,12.0,0.,12.0,0.,12.0
1979-07-30 19:05:02.120 ,7,1,0.,12.0,0.,12.0,0.,12.0,0.,12.0
1979-07-30 19:05:14.120 ,7,0,0.,12.0,0.,12.0,0.,12.0,0.,12.0
1979-07-30 19:05:26.120 ,7,0,0.,12.0,0.,12.0,0.,12.0,0.,12.0
1979-07-30 19:05:38.120 ,7,1,0.,12.0,0.,12.0,0.,12.0,0.,12.0
1979-07-30 19:05:50.120 ,7,1,0.,12.0,0.,12.0,0.,12.0,0.,12.0
1979-07-30 19:06:02.120 ,7,0,0.,12.0,0.,12.0,0.,12.0,0.,12.0
1979-07-30 19:06:14.120 ,7,0,0.,12.0,0.,12.0,0.,12.0,0.,12.0
1979-07-30 19:06:26.120 ,6,1,0.,12.0,0.,12.0,0.,12.0,0.,12.0
1979-07-30 19:06:38.120 ,6,1,0.,12.0,0.,12.0,0.,12.0,0.,12.0
1979-07-30 19:06:50.120 ,6,0,0.,12.0,0.,12.0,0.,12.0,0.,12.0
1979-07-30 19:07:02.120 ,6,0,0.,12.0,0.,12.0,0.,12.0,0.,12.0
1979-07-30 19:07:14.120 ,5,1,0.,12.0,0.,12.0,0.,12.0,0.,12.0
1979-07-30 19:07:26.120 ,5,1,0.,12.0,0.,12.0,0.,12.0,0.,12.0
1979-07-30 19:07:38.120 ,5,0,0.,12.0,0.,12.0,0.,12.0,0.,12.0
1979-07-30 19:07:50.120 ,5,0,0.,12.0,0.,12.0,0.,12.0,0.,12.0
1979-07-30 19:08:02.120 ,4,1,0.,12.0,0.,12.0,0.,12.0,0.,12.0
1979-07-30 19:08:14.120 ,4,1,0.,12.0,0.,12.0,0.,12.0,0.,12.0
1979-07-30 19:08:26.120 ,4,0,0.,12.0,0.,12.0,0.,12.0,0.,12.0
1979-07-30 19:08:38.120 ,4,0,0.,12.0,0.,12.0,0.,12.0,0.,12.0
1979-07-30 19:08:50.120 ,3,1,0.,12.0,0.,12.0,0.,12.0,0.,12.0
1979-07-30 19:09:02.120 ,3,1,0.,12.0,0.,12.0,0.,12.0,0.,12.0
1979-07-30 19:09:14.120 ,3,0,0.,12.0,0.,12.0,0.,12.0,0.,12.0
1979-07-30 19:09:26.120 ,3,0,0.,12.0,0.,12.0,0.,12.0,0.,12.0
1979-07-30 19:09:38.120 ,2,1,0.,12.0,0.,12.0,0.,12.0,0.,12.0
1979-07-30 19:09:50.120 ,2,1,0.,12.0,0.,12.0,0.,12.0,0.,12.0
1979-07-30 19:10:02.120 ,2,0,0.,12.0,0.,12.0,0.,12.0,0.,12.0
1979-07-30 19:10:14.120 ,2,0,0.,12.0,0.,12.0,0.,12.0,0.,12.0
1979-07-30 19:10:26.110 ,1,1,0.,12.0,0.,12.0,0.,12.0,0.,12.0
1979-07-30 19:10:38.120 ,1,1,0.,12.0,0.,12.0,0.,12.0,0.,12.0
1979-07-30 19:10:50.110 ,1,0,0.,12.0,0.,12.0,0.,12.0,0.,12.0
1979-07-30 19:11:02.120 ,1,0,0.,12.0,0.,12.0,0.,12.0,0.,12.0
1979-07-30 19:11:14.110 ,0,1,0.,12.0,0.,12.0,0.,12.0,0.,12.0
1979-07-30 19:11:26.120 ,0,1,0.,12.0,0.,12.0,0.,12.0,0.,12.0
1979-07-30 19:11:38.110 ,0,0,0.,12.0,0.,12.0,0.,12.0,0.,12.0
1979-07-30 19:11:50.120 ,0,0,0.,12.0,0.,12.0,0.,12.0,0.,12.0
1979-07-30 19:12:02.110 ,0,1,0.,12.0,0.,12.0,0.,12.0,0.,12.0
1979-07-30 19:12:14.120 ,0,1,0.,12.0,0.,12.0,0.,12.0,0.,12.0
1979-07-30 19:12:26.110 ,0,0,0.,12.0,0.,12.0,0.,12.0,0.,12.0
1979-07-30 19:12:38.120 ,0,0,0.,12.0,0.,12.0,0.,12.0,0.,12.0
1979-07-30 19:12:50.110 ,1,1,0.,12.0,0.,12.0,0.,12.0,0.,12.0
1979-07-30 19:13:02.120 ,1,1,0.,12.0,0.,12.0,0.,12.0,0.,12.0
1979-07-30 19:13:14.110 ,1,0,0.,12.0,0.,12.0,0.,12.0,0.,12.0
1979-07-30 19:13:26.120 ,1,0,0.,12.0,0.,12.0,0.,12.0,0.,12.0
1979-07-30 19:13:38.110 ,2,1,0.,12.0,0.,12.0,0.,12.0,0.,12.0
1979-07-30 19:13:50.120 ,2,1,0.,12.0,0.,12.0,0.,12.0,0.,12.0
1979-07-30 19:14:02.110 ,2,0,0.,12.0,0.,12.0,0.,12.0,0.,12.0
1979-07-30 19:14:14.120 ,2,0,0.,12.0,0.,12.0,0.,12.0,0.,12.0
1979-07-30 19:14:26.110 ,3,1,0.,12.0,0.,12.0,0.,12.0,0.,12.0
1979-07-30 19:14:38.120 ,3,1,0.,12.0,0.,12.0,0.,12.0,0.,12.0
1979-07-30 19:14:50.110 ,3,0,0.,12.0,0.,12.0,0.,12.0,0.,12.0
1979-07-30 19:15:02.120 ,3,0,0.,12.0,0.,12.0,0.,12.0,0.,12.0
1979-07-30 19:15:14.110 ,4,1,0.,12.0,0.,12.0,0.,12.0,0.,12.0
1979-07-30 19:15:26.120 ,4,1,0.,12.0,0.,12.0,0.,12.0,0.,12.0
1979-07-30 19:15:38.110 ,4,0,0.,12.0,0.,12.0,0.,12.0,0.,12.0
1979-07-30 19:15:50.120 ,4,0,0.,12.0,0.,12.0,0.,12.0,0.,12.0
1979-07-30 19:16:02.110 ,5,1,0.,12.0,0.,12.0,0.,12.0,0.,12.0
1979-07-30 19:16:14.120 ,5,1,0.,12.0,0.,12.0,0.,12.0,0.,12.0
1979-07-30 19:16:26.110 ,5,0,0.,12.0,0.,12.0,0.,12.0,0.,12.0
1979-07-30 19:16:38.120 ,5,0,0.,12.0,0.,12.0,0.,12.0,0.,12.0
1979-07-30 19:16:50.110 ,6,1,0.,12.0,0.,12.0,0.,12.0,0.,12.0
1979-07-30 19:17:02.120 ,6,1,0.,12.0,0.,12.0,0.,12.0,0.,12.0
1979-07-30 19:17:14.110 ,6,0,0.,12.0,0.,12.0,0.,12.0,0.,12.0
1979-07-30 19:17:26.110 ,6,0,1.,12.0,0.,12.0,0.,12.0,0.,12.0